This demonstration page uses our WeatherBlox Daily Observations layout. Learn more.

Left ArrowRight Arrow

34.02893, -84.19858

Hourly Observations for January 27, 2018

Temp ( °F °C ) Dew Point ( °F °C ) Humidity (%) Winds ( mph kmh ) Pressure ( in mb ) Visibility ( mi km ) Precip ( " mm )
12:16 am 00:16 Cloudy 49 9.4 25 -3.9 39 39 E 6 9 30.53 1034 10 16 0.00 0.00
12:53 am 00:53 Cloudy 49 9.4 27 -2.8 43 43 E 6 9 30.51 1033 10 16 0.00 0.00
1:53 am 01:53 Cloudy 49 9.4 28 -2.2 44 44 VRB 5 7 30.50 1033 10 16 0.00 0.00
2:48 am 02:48 Cloudy 48 9 28 -2 46 46 VRB 3 6 30.53 1034 10 16 0.00 0.00
2:53 am 02:53 Cloudy 48 8.9 29 -1.7 48 48 E 5 7 30.50 1033 10 16 0.00 0.00
3:53 am 03:53 Cloudy 48 8.9 31 -0.6 52 52 VRB 3 6 30.48 1032 10 16 0.00 0.00
4:53 am 04:53 Cloudy 48 8.9 33 0.6 56 56 ENE 5 7 30.48 1032 10 16 0.00 0.00
5:53 am 05:53 Mostly Cloudy 48 8.9 35 1.7 61 61 VRB 3 6 30.48 1032 10 16 0.00 0.00
6:53 am 06:53 Partly Cloudy 47 8.3 35 1.7 63 63 VRB 3 6 30.47 1032 10 16 0.00 0.00
7:53 am 07:53 Cloudy 47 8.3 36 2.2 66 66 ENE 6 9 30.48 1032 10 16 0.00 0.00
8:53 am 08:53 Cloudy 48 8.9 35 1.7 61 61 E 5 7 30.48 1032 10 16 0.00 0.00
9:27 am 09:27 Cloudy 48 8.9 36 2.2 63 63 VRB 6 9 30.50 1033 10 16 0.00 0.00
9:53 am 09:53 Cloudy 48 8.9 37 2.8 66 66 VRB 5 7 30.48 1032 10 16 0.00 0.00
10:53 am 10:53 Cloudy 50 10 38 3.3 63 63 ENE 6 9 30.46 1032 10 16 0.00 0.00
11:53 am 11:53 Cloudy with Light Rain 53 11.7 42 5.6 66 66 VRB 6 9 30.44 1031 10 16 0.00 0.03
12:53 pm 12:53 Cloudy 56 13.3 45 7.2 67 67 SSE 6 9 30.41 1030 10 16 0.00 0.03
1:34 pm 13:34 Cloudy 57 13.9 47 8.3 69 69 SSE 3 6 30.39 1029 10 16 0.00 0.00
1:53 pm 13:53 Cloudy 57 13.9 47 8.3 69 69 SSE 3 6 30.38 1029 10 16 0.00 0.00
2:53 pm 14:53 Cloudy with Light Rain 56 13.3 49 9.4 77 77 Calm 30.36 1028 7 11 0.00 0.03
3:00 pm 15:00 Cloudy with Light Rain 56 13.3 50 10 81 81 Calm 30.36 1028 8 13 0.00 0.03
3:53 pm 15:53 Cloudy with Light Rain 54 12.2 51 10.6 90 90 Calm 30.34 1027 6 10 0.03 0.76
4:53 pm 16:53 Cloudy with Light Rain 54 12.2 52 11.1 93 93 Calm 30.34 1028 3 5 0.03 0.76
5:53 pm 17:53 Cloudy 53 11.7 51 10.6 93 93 E 3 6 30.35 1028 8 13 0.00 0.03
6:53 pm 18:53 Cloudy 52 11.1 50 10 93 93 ESE 5 7 30.33 1027 10 16 0.02 0.51
7:53 pm 19:53 Cloudy 52 11.1 50 10 93 93 Calm 30.35 1028 10 16 0.00 0.00
8:53 pm 20:53 Cloudy 51 10.6 50 10 96 96 ENE 3 6 30.34 1027 8 13 0.01 0.25
9:53 pm 21:53 Cloudy with Rain 50 10 49 9.4 96 96 E 5 7 30.33 1027 4 6 0.05 1.27
10:01 pm 22:01 Cloudy with Light Rain 50 10 49 9.4 96 96 ENE 5 7 30.36 1028 4 6 0.01 0.25
10:23 pm 22:23 Cloudy 50 10 49 9.4 96 96 Calm 30.36 1028 7 11 0.01 0.25
10:53 pm 22:53 Cloudy with Mist and Fog 50 10 49 9.4 96 96 ENE 7 11 30.32 1027 6 10 0.01 0.25
11:36 pm 23:36 Cloudy with Mist and Fog 50 10 49 9.4 96 96 Calm 30.33 1027 5 8 0.00 0.00
11:44 pm 23:44 Cloudy with Mist and Fog 50 10 49 9.4 96 96 ESE 3 6 30.33 1027 4 6 0.00 0.00
11:53 pm 23:53 Cloudy with Mist and Fog 50 10 49 9.4 96 96 Calm 30.30 1026 4 6 0.00 0.00

Powered by AerisWeather